Starlink 3611

operational
NORAD ID: 51779 Int'l Des: 2022-017 Owner: SPXS Country: US Constellation: starlink
LEOCIRCULAR

About Starlink 3611

Description loading...

Live Position

Loading 3D Globe...

Upcoming Passes

Altitude History

Altitude vs Time

uPlot chart will show altitude changes over time

Two-Line Element Set

1 51779U 22017M 25350.32859249 -.00006128 00000-0 -36692-3 0 9996
2 51779 53.2189 353.3929 0001652 90.4911 269.6270 15.08871823209984
Epoch: Dec 16, 2025 • Age: 14 hours

Current Status

Altitude 545.4 km
Velocity 7.59 km/s
Sub-Earth Point -19.06°S, 81.27°W
Launch Date Feb 25, 2022
Age 3.8 years
Type internet

Technical Details

Classification Payload
Mass 297.00 kg
Dry Mass 275.00 kg
Total Mass 297.00 kg
Length 0.20 m
Diameter 2.80 m
Span 9.00 m
Shape Box + pan
Manufacturer SPXS
Bus Type Starlink
Phase Status In Orbit
Owner/State SPXS/US

Large Constellations

Loading constellations...